Orbital Elements at Epoch 2459200.5 (2020-Dec-17.0) TDB
Reference: JPL 16 (heliocentric ecliptic J2000)
Element | Value | Uncertainty (1-sigma) | Units |
e | .06829944273596747 | 5.885e-08 | |
a | 2.599484527744413 | 1.998e-08 | au |
q | 2.4219411830987 | 1.5064e-07 | au |
i | 15.13107013806324 | 5.434e-06 | deg |
node | 68.55599523999743 | 1.7666e-05 | deg |
peri | 1.494009600924671 | 4.2604e-05 | deg |
M | 203.584621588638 | 4.1782e-05 | deg |
tp | 2459865.629531916029 (2022-Oct-13.12953192) | 0.00018208 | TDB |
period | 1530.838168994112 4.19 | 1.7649e-05 4.832e-08 | d yr |
n | .2351652887232031 | 2.7113e-09 | deg/d |
Q | 2.777027872390126 | 2.1345e-08 | au |
|
| | Orbit Determination Parameters
Additional Information
|